Simultaneous Nadir Overpasses (SNOs) Predictions

Prediction of SNOs between AQUA and METOP-B Satellite Orbit:

Table of predicted SNOs for the next 14.0 days since TLE Epoch: 1/28/2023
Index Date (AQUA) Time (AQUA) Lat,Lon (AQUA) SZA (AQUA ) Date (METOP-B) Time (METOP-B) Lat,Lon (METOP-B) SZA (METOP-B ) Distance(km) Time Diff (sec)
1 01/29/2023 07:12:45 74.20, 67.16 92.23 01/29/2023 07:11:53 74.22, 67.19 92.26 2.64 52
2 01/29/2023 08:02:11 -74.27,-125.38 87.70 01/29/2023 08:02:34 -74.25,-125.38 87.72 2.03 23
3 02/01/2023 01:56:06 -74.21, -33.69 88.52 02/01/2023 01:55:33 -74.23, -33.68 88.49 2.51 33
4 02/01/2023 02:45:34 74.29, 133.75 91.56 02/01/2023 02:46:12 74.27, 133.74 91.53 3.01 38
5 02/03/2023 19:49:50 -73.70, 59.02 89.86 02/03/2023 19:48:43 -73.61, 56.57 89.84 77.12 67
6 02/03/2023 20:39:27 74.25,-134.59 90.72 02/03/2023 20:39:10 74.23,-134.59 90.71 1.68 17
7 02/03/2023 21:28:53 -74.32, 32.88 89.21 02/03/2023 21:29:50 -74.33, 32.98 89.22 3.06 57
8 02/06/2023 14:33:20 74.22, -42.96 89.86 02/06/2023 14:32:09 74.19, -42.94 89.84 2.89 71
9 02/06/2023 15:22:45 -74.24, 124.63 90.14 02/06/2023 15:22:50 -74.24, 124.51 90.13 3.61 5
10 02/06/2023 16:12:14 74.38, -68.06 90.01 02/06/2023 16:13:26 74.41, -67.71 90.02 11.05 72
11 02/09/2023 09:16:37 -74.22,-143.76 91.02 02/09/2023 09:15:48 -74.24,-143.73 90.99 2.80 49
12 02/09/2023 10:06:05 74.31, 23.66 89.07 02/09/2023 10:06:26 74.31, 23.78 89.07 3.62 21



Historial Predications of SNOs between AQUA and METOP-B
